When you browse on this site, cookies collect data to enhance your experience and personalize the content and advertising you see.
Visit our Privacy Policy to learn more. By continuing to use the site, you agree to this use of cookies and data.
  • en Belgique
  • Liste des pays
  • À 7 jours
  • Température de l'eau
  • Carte satellitaire
  • Carte météo
  • Widgets météo
  • user-avatar
    Se connecter

    Météo par heure à Dakoro

    Ce jour, 17 Novembre, Samedi

    Heure Température Précipitation Vent Pression Humidité
    00:00 +26°C° 0 mm 3 m/s 725 mmHg 20%
    01:00 +25°C° 0 mm 3 m/s 725 mmHg 21%
    02:00 +24°C° 0 mm 3 m/s 725 mmHg 21%
    03:00 +24°C° 0 mm 3 m/s 725 mmHg 22%
    04:00 +24°C° 0 mm 3 m/s 725 mmHg 22%
    05:00 +22°C° 0 mm 3 m/s 725 mmHg 22%
    06:00 +22°C° 0 mm 3 m/s 725 mmHg 22%
    07:00 +22°C° 0 mm 3 m/s 725 mmHg 22%
    08:00 +26°C° 0 mm 4 m/s 726 mmHg 19%
    09:00 +28°C° 0 mm 5 m/s 726 mmHg 17%
    10:00 +32°C° 0 mm 6 m/s 726 mmHg 14%
    11:00 +33°C° 0 mm 5 m/s 726 mmHg 13%
    12:00 +34°C° 0 mm 4 m/s 726 mmHg 12%
    13:00 +35°C° 0 mm 4 m/s 725 mmHg 11%
    14:00 +36°C° 0 mm 3 m/s 725 mmHg 11%
    15:00 +36°C° 0 mm 2 m/s 724 mmHg 10%
    16:00 +36°C° 0 mm 2 m/s 723 mmHg 10%
    17:00 +34°C° 0 mm 2 m/s 723 mmHg 11%
    18:00 +31°C° 0 mm 2 m/s 723 mmHg 13%
    19:00 +29°C° 0 mm 2 m/s 723 mmHg 14%
    20:00 +29°C° 0 mm 2 m/s 724 mmHg 14%
    21:00 +28°C° 0 mm 2 m/s 724 mmHg 15%
    22:00 +28°C° 0 mm 3 m/s 724 mmHg 15%
    23:00 +28°C° 0 mm 3 m/s 724 mmHg 15%

    Demain, 18 Novembre, Dimanche

    Heure Température Précipitation Vent Pression Humidité
    00:00 +27°C° 0 mm 3 m/s 724 mmHg 16%
    01:00 +27°C° 0 mm 3 m/s 724 mmHg 16%
    02:00 +26°C° 0 mm 3 m/s 724 mmHg 17%
    03:00 +26°C° 0 mm 3 m/s 724 mmHg 17%
    04:00 +25°C° 0 mm 3 m/s 723 mmHg 18%
    05:00 +25°C° 0 mm 3 m/s 724 mmHg 18%
    06:00 +25°C° 0 mm 3 m/s 724 mmHg 18%
    07:00 +24°C° 0 mm 3 m/s 724 mmHg 19%
    08:00 +27°C° 0 mm 4 m/s 725 mmHg 17%
    09:00 +30°C° 0 mm 4 m/s 725 mmHg 14%
    10:00 +33°C° 0 mm 5 m/s 726 mmHg 12%
    11:00 +35°C° 0 mm 4 m/s 725 mmHg 12%
    12:00 +36°C° 0 mm 3 m/s 725 mmHg 11%
    13:00 +37°C° 0 mm 3 m/s 725 mmHg 11%
    14:00 +37°C° 0 mm 2 m/s 724 mmHg 11%
    15:00 +37°C° 0 mm 1 m/s 723 mmHg 11%
    16:00 +37°C° 0 mm 1 m/s 723 mmHg 10%
    17:00 +35°C° 0 mm 1 m/s 723 mmHg 12%
    18:00 +33°C° 0 mm 1 m/s 723 mmHg 13%
    19:00 +30°C° 0 mm 2 m/s 723 mmHg 15%
    20:00 +30°C° 0 mm 2 m/s 723 mmHg 15%
    21:00 +30°C° 0 mm 3 m/s 723 mmHg 15%
    22:00 +30°C° 0 mm 3 m/s 724 mmHg 15%
    23:00 +29°C° 0 mm 3 m/s 724 mmHg 14%

    Après-demain, 19 Novembre, Lundi

    Heure Température Précipitation Vent Pression Humidité
    00:00 +28°C° 0 mm 3 m/s 724 mmHg 14%
    01:00 +28°C° 0 mm 4 m/s 723 mmHg 14%
    02:00 +27°C° 0 mm 4 m/s 723 mmHg 14%
    03:00 +27°C° 0 mm 4 m/s 723 mmHg 13%
    04:00 +26°C° 0 mm 4 m/s 723 mmHg 13%
    05:00 +26°C° 0 mm 4 m/s 723 mmHg 14%
    06:00 +26°C° 0 mm 4 m/s 723 mmHg 14%
    07:00 +25°C° 0 mm 4 m/s 724 mmHg 14%
    08:00 +28°C° 0 mm 4 m/s 724 mmHg 13%
    09:00 +32°C° 0 mm 5 m/s 725 mmHg 11%
    10:00 +34°C° 0 mm 6 m/s 726 mmHg 10%
    11:00 +36°C° 0 mm 5 m/s 725 mmHg 9%
    12:00 +37°C° 0 mm 4 m/s 724 mmHg 9%
    13:00 +38°C° 0 mm 4 m/s 724 mmHg 9%
    14:00 +38°C° 0 mm 3 m/s 723 mmHg 9%
    15:00 +38°C° 0 mm 3 m/s 723 mmHg 9%
    16:00 +39°C° 0 mm 2 m/s 722 mmHg 9%
    17:00 +37°C° 0 mm 2 m/s 722 mmHg 10%
    18:00 +35°C° 0 mm 2 m/s 722 mmHg 12%
    19:00 +31°C° 0 mm 2 m/s 722 mmHg 13%
    20:00 +31°C° 0 mm 3 m/s 723 mmHg 13%
    21:00 +30°C° 0 mm 3 m/s 723 mmHg 13%
    22:00 +30°C° 0 mm 3 m/s 724 mmHg 13%
    23:00 +29°C° 0 mm 3 m/s 724 mmHg 12%

    20 Novembre, Mardi

    Heure Température Précipitation Vent Pression Humidité
    00:00 +29°C° 0 mm 3 m/s 724 mmHg 12%
    01:00 +28°C° 0 mm 4 m/s 723 mmHg 12%
    02:00 +27°C° 0 mm 4 m/s 723 mmHg 11%
    03:00 +27°C° 0 mm 4 m/s 723 mmHg 11%
    04:00 +26°C° 0 mm 4 m/s 722 mmHg 11%
    05:00 +26°C° 0 mm 4 m/s 723 mmHg 11%
    06:00 +26°C° 0 mm 4 m/s 723 mmHg 11%
    07:00 +26°C° 0 mm 4 m/s 724 mmHg 12%
    08:00 +28°C° 0 mm 4 m/s 724 mmHg 10%
    09:00 +32°C° 0 mm 5 m/s 725 mmHg 9%
    10:00 +34°C° 0 mm 6 m/s 726 mmHg 8%
    11:00 +36°C° 0 mm 5 m/s 725 mmHg 8%
    12:00 +37°C° 0 mm 5 m/s 725 mmHg 7%
    13:00 +40°C° 0 mm 5 m/s 724 mmHg 7%
    14:00 +40°C° 0 mm 4 m/s 724 mmHg 7%
    15:00 +40°C° 0 mm 4 m/s 723 mmHg 6%
    16:00 +39°C° 0 mm 3 m/s 723 mmHg 6%
    17:00 +37°C° 0 mm 3 m/s 723 mmHg 7%
    18:00 +35°C° 0 mm 3 m/s 723 mmHg 8%
    19:00 +33°C° 0 mm 3 m/s 723 mmHg 8%
    20:00 +31°C° 0 mm 3 m/s 724 mmHg 9%
    21:00 +30°C° 0 mm 3 m/s 724 mmHg 9%
    22:00 +29°C° 0 mm 4 m/s 724 mmHg 10%
    23:00 +29°C° 0 mm 4 m/s 724 mmHg 10%

    21 Novembre, Mercredi

    Heure Température Précipitation Vent Pression Humidité
    00:00 +28°C° 0 mm 4 m/s 724 mmHg 10%
    01:00 +27°C° 0 mm 4 m/s 724 mmHg 11%
    02:00 +27°C° 0 mm 4 m/s 723 mmHg 11%
    03:00 +26°C° 0 mm 4 m/s 723 mmHg 11%
    04:00 +26°C° 0 mm 3 m/s 723 mmHg 11%
    05:00 +26°C° 0 mm 4 m/s 723 mmHg 11%
    06:00 +25°C° 0 mm 4 m/s 724 mmHg 12%
    07:00 +25°C° 0 mm 4 m/s 724 mmHg 12%
    08:00 +28°C° 0 mm 5 m/s 725 mmHg 11%
    09:00 +30°C° 0 mm 6 m/s 725 mmHg 9%
    10:00 +34°C° 0 mm 7 m/s 725 mmHg 8%
    11:00 +35°C° 0 mm 6 m/s 725 mmHg 7%
    12:00 +38°C° 0 mm 6 m/s 724 mmHg 7%
    13:00 +39°C° 0 mm 5 m/s 724 mmHg 6%
    14:00 +39°C° 0 mm 5 m/s 723 mmHg 6%
    15:00 +39°C° 0 mm 5 m/s 723 mmHg 6%
    16:00 +39°C° 0 mm 5 m/s 722 mmHg 6%
    17:00 +37°C° 0 mm 4 m/s 723 mmHg 6%
    18:00 +35°C° 0 mm 4 m/s 723 mmHg 7%
    19:00 +33°C° 0 mm 3 m/s 723 mmHg 8%
    20:00 +32°C° 0 mm 4 m/s 724 mmHg 8%
    21:00 +30°C° 0 mm 4 m/s 724 mmHg 8%
    22:00 +30°C° 0 mm 5 m/s 724 mmHg 9%
    23:00 +29°C° 0 mm 5 m/s 724 mmHg 9%

    22 Novembre, Jeudi

    Heure Température Précipitation Vent Pression Humidité
    00:00 +28°C° 0 mm 5 m/s 724 mmHg 9%
    01:00 +28°C° 0 mm 5 m/s 724 mmHg 10%
    02:00 +27°C° 0 mm 5 m/s 723 mmHg 10%
    03:00 +26°C° 0 mm 5 m/s 723 mmHg 10%
    04:00 +26°C° 0 mm 5 m/s 723 mmHg 11%
    05:00 +25°C° 0 mm 4 m/s 723 mmHg 11%
    06:00 +25°C° 0 mm 4 m/s 724 mmHg 12%
    07:00 +25°C° 0 mm 4 m/s 724 mmHg 12%
    08:00 +27°C° 0 mm 5 m/s 725 mmHg 11%
    09:00 +30°C° 0 mm 6 m/s 725 mmHg 9%
    10:00 +34°C° 0 mm 7 m/s 726 mmHg 8%
    11:00 +35°C° 0 mm 7 m/s 725 mmHg 7%
    12:00 +38°C° 0 mm 7 m/s 725 mmHg 6%
    13:00 +39°C° 0 mm 7 m/s 724 mmHg 5%
    14:00 +39°C° 0 mm 7 m/s 724 mmHg 5%
    15:00 +39°C° 0 mm 6 m/s 723 mmHg 5%
    16:00 +39°C° 0 mm 6 m/s 723 mmHg 5%
    17:00 +36°C° 0 mm 5 m/s 723 mmHg 5%
    18:00 +34°C° 0 mm 5 m/s 723 mmHg 6%
    19:00 +30°C° 0 mm 4 m/s 723 mmHg 7%
    20:00 +30°C° 0 mm 4 m/s 724 mmHg 7%
    21:00 +29°C° 0 mm 4 m/s 724 mmHg 7%
    22:00 +28°C° 0 mm 4 m/s 724 mmHg 7%
    23:00 +27°C° 0 mm 4 m/s 724 mmHg 8%
    Voir plus